Location: Cond�
(49.2245°N, 0.6350°W)
Time: 01:15:49
(UTC+00:00)

Daily predictions for brighter satellites

Satellite Brightness Start Highest point End
(mag) Time Altitude Azimuth Time Altitude Azimuth Time Altitude Azimuth
CZ-4C R/B 4.3 00:30:27 23° NNW 00:31:24 24° N 00:36:50 10° NE
USA 234 4.4 00:38:59 10° ENE 00:43:28 38° NE 00:43:28 38° NE
Cosmos 2369 Rocket 4.5 00:52:18 18° NNW 00:52:18 18° NNW 00:54:55 10° N
Cosmos 2263 Rocket 4.3 00:58:25 10° N 01:02:45 22° NE 01:03:48 21° NE
Lacrosse 5 4.4 01:22:28 15° ENE 01:22:28 15° ENE 01:23:25 10° ENE
Resurs 1-4 Rocket 3.9 01:24:26 10° NNE 01:26:57 27° NE 01:26:57 27° NE
SL-16 R/B 3.8 01:35:43 34° NNW 01:35:43 34° NNW 01:39:02 10° NNW
CZ-2D R/B 3.8 01:30:59 10° NNE 01:33:36 29° NNE 01:33:36 29° NNE
ATLAS 5 CENTAUR R/B 4.0 01:57:35 21° N 01:57:35 21° N 01:59:59 10° NNE
ATLAS 2AS CENTAUR R/B 4.1 01:55:27 10° NW 02:02:35 38° NNE 02:09:14 10° E
Cosmos 2369 4.3 02:20:38 53° NNE 02:20:38 53° NNE 02:25:00 10° NNE
SJ 16-02 3.9 02:15:12 10° N 02:16:14 16° N 02:16:14 16° N
ADEOS II 2.9 02:14:20 10° NNE 02:18:20 47° NE 02:18:20 47° NE
IDEFIX/ARIANE 42P 4.2 02:16:55 10° NE 02:21:20 27° E 02:22:24 25° ESE
CZ-4C R/B 4.4 02:16:32 10° NW 02:22:04 28° NNE 02:28:28 10° ENE
Nadezhda 3 Rocket 4.1 02:27:57 71° NNE 02:27:57 71° NNE 02:33:23 10° N
USA 234 3.7 02:21:11 10° E 02:27:34 58° NNE 02:30:48 30° NW
Cosmos 1238 Rocket 4.1 02:26:12 10° N 02:32:45 68° ENE 02:33:16 65° ESE
CZ-4B R/B 4.1 02:30:38 10° NNE 02:34:35 54° NNE 02:34:35 54° NNE
H-2A R/B 4.5 02:35:34 10° ESE 02:39:00 23° ENE 02:42:30 10° N
Cosmos 1697 Rocket 3.3 02:40:57 47° NNW 02:40:57 47° NNW 02:45:25 10° NNE
ATLAS CENTAUR R/B 4.4 02:27:29 10° WNW 02:42:41 52° N 02:48:19 10° ENE
Cosmos 1980 Rocket 2.3 02:47:20 72° N 02:47:20 72° N 02:52:27 10° NNE
Cosmos 2263 Rocket 3.0 02:41:47 10° NNW 02:45:20 40° NNW 02:45:20 40° NNW
ASTEX 1 3.8 02:46:20 10° NNE 02:51:18 59° E 02:51:25 59° E
Cosmos 1898 Rocket 3.9 02:50:44 10° NNW 02:55:58 61° ENE 03:01:12 10° SE
Cosmos 2322 Rocket 3.5 02:54:21 26° SE 02:56:28 34° ESE 03:01:32 10° NE
Cosmos 1666 4.5 02:55:04 10° N 02:58:30 30° ENE 02:59:07 28° E
Lacrosse 5 2.4 03:01:39 48° NNW 03:01:39 48° NNW 03:06:28 10° NE
Cosmos 921 Rocket 3.7 03:05:07 51° NE 03:05:07 51° NE 03:08:22 10° NNE
IRS-1C 4.0 02:59:43 10° NNE 03:05:06 88° WNW 03:05:14 85° SW
Cosmos 1812 3.8 03:08:14 45° ENE 03:08:14 45° ENE 03:11:20 10° NNE
USA 307 3.7 03:08:53 46° NNE 03:08:53 46° NNE 03:12:30 10° ENE
SL-16 R/B 2.9 03:06:39 37° SSE 03:08:22 49° ESE 03:13:50 10° NE
Resurs 1-4 Rocket 3.5 03:04:49 10° N 03:08:01 25° NW 03:08:01 25° NW
ERBS 4.3 03:12:22 29° NE 03:12:22 29° NE 03:14:09 10° NE
USA 308 3.7 03:12:08 47° N 03:12:08 47° N 03:15:53 10° ENE
Cosmos 1339 Rocket 4.4 03:12:47 45° S 03:14:54 84° E 03:21:06 10° N
Cosmos 1937 Rocket 3.8 03:10:22 10° NNW 03:15:30 64° ENE 03:20:36 10° SE
CZ-2D R/B 3.6 03:11:42 10° N 03:14:55 23° NW 03:14:55 23° NW
CZ-4C R/B 4.1 03:20:03 43° E 03:20:27 45° ENE 03:23:50 10° N
Cosmos 1536 4.0 03:19:41 10° N 03:23:35 42° ENE 03:27:28 10° SSE
Cosmos 1763 Rocket 3.8 03:25:16 39° S 03:27:08 65° ESE 03:32:23 10° NNE
CZ-2D R/B 3.4 03:22:55 10° NNE 03:27:12 87° E 03:27:24 81° S
IRIDIUM 103 4.4 03:24:24 10° N 03:29:39 79° E 03:33:37 18° S
ARIANE 5 R/B 2.4 03:24:43 10° N 03:29:48 70° WNW 03:30:25 63° WSW
NOSS 3-4 (A) 3.8 03:23:37 10° NW 03:30:34 87° NE 03:38:17 10° SE
NOSS 3-4 (C) 3.8 03:23:44 10° NW 03:30:40 87° NE 03:38:23 10° SE
USA 267 3.4 03:27:36 10° ENE 03:34:08 69° SE 03:36:57 36° SW
Cosmos 1707 Rocket 4.2 03:32:27 27° SSE 03:34:33 54° E 03:38:50 10° NNE
ADEOS Rocket 3.8 03:32:38 10° SE 03:38:53 52° ENE 03:44:35 10° N
Meteor 1-5 Rocket 4.1 03:34:50 10° NNW 03:40:05 60° W 03:42:00 38° SSW
NOSS 3-3 (A) 4.0 03:38:58 44° WSW 03:40:56 69° NW 03:47:47 10° NE
NOSS 3-3 (C) 4.0 03:39:06 44° WSW 03:41:03 70° NW 03:47:52 10° NE
CZ-4B R/B 4.0 03:39:08 10° ESE 03:41:39 21° ENE 03:44:14 10° NNE
ATLAS 5 CENTAUR R/B 4.1 03:39:07 10° NW 03:42:11 16° N 03:45:32 10° NE
ERS-2 3.3 03:39:20 10° SE 03:42:49 43° ENE 03:46:19 10° N
Cosmos 540 Rocket 4.4 03:38:54 16° S 03:42:51 47° ESE 03:47:48 10° NNE
Cosmos 1934 Rocket 4.4 03:37:55 10° NNW 03:43:14 36° W 03:43:14 36° W
MSX 3.8 03:38:54 10° NNE 03:44:44 87° ESE 03:48:33 23° SSW
Cosmos 1733 Rocket 3.6 03:42:32 10° N 03:46:51 57° ENE 03:51:06 10° SSE
Cosmos 44 Rocket 4.0 03:44:48 26° S 03:47:08 47° ESE 03:51:49 10° NE
Cosmos 44 4.0 03:46:58 33° NW 03:47:32 34° NW 03:51:54 10° NNE
IRIDIUM 106 4.2 03:42:44 10° N 03:47:58 74° W 03:51:57 17° S
Cosmos 990 Rocket 4.1 03:44:40 10° NNW 03:49:40 47° WSW 03:54:38 10° S
PAYLOAD A 4.4 03:47:37 10° NNE 03:52:15 56° E 03:56:53 10° S
ATLAS 2AS CENTAUR R/B 2.7 03:46:47 10° NW 03:54:23 84° SW 04:01:20 10° SE
Meteor 2-6 Rocket 4.4 03:52:21 36° SW 03:54:33 57° WNW 04:00:23 10° N
Meteor 1-10 Rocket 4.3 03:51:45 30° SSW 03:54:46 68° WNW 04:00:42 10° N
Cosmos 2173 Rocket 4.2 03:48:40 10° N 03:55:02 75° E 04:01:25 10° SSE
Landsat 5 3.5 03:51:50 10° S 03:56:21 74° WSW 04:00:46 10° NNW
BREEZE M DEB (TANK) 4.4 03:40:48 10° WNW 03:56:27 45° SW 04:01:12 10° SSE
Cosmos 2333 Rocket 4.4 03:52:14 10° SSE 03:56:41 24° ESE 04:01:09 10° NE
Cosmos 1869 Rocket 4.3 03:53:43 10° NNW 03:56:48 33° WNW 03:56:48 33° WNW
CZ-2C R/B 2.6 03:54:11 10° N 03:58:00 72° WNW 03:58:54 49° SW
ADEOS II 3.3 03:54:43 10° N 03:58:52 24° WNW 03:59:15 24° WNW
SL-4 R/B 2.3 03:57:30 43° SW 03:58:55 72° SSE 04:03:41 10° ENE
IDEFIX/ARIANE 42P 2.8 03:56:05 10° N 04:01:12 50° WNW 04:03:12 33° WSW
PSLV R/B 3.9 03:57:24 10° NNE 04:01:34 62° ESE 04:05:43 10° S
Cosmos 468 Rocket 4.0 03:59:52 35° SW 04:02:02 62° WNW 04:07:16 10° NNE
BREEZE-M DEB (TANK) 3.8 03:59:36 25° SW 04:02:54 41° S 04:06:04 10° E
Cosmos 1570 Rocket 4.3 03:58:30 14° S 04:03:03 68° ESE 04:08:23 10° NNE
USA 276 2.1 04:03:18 62° S 04:03:18 62° S 04:06:25 10° ESE
Cosmos 967 Rocket 4.5 04:03:43 24° SW 04:07:52 89° NW 04:14:19 10° NE
BREEZE-M DEB (TANK) 3.0 04:08:00 42° WSW 04:09:02 78° SSE 04:16:29 10° ENE
Cosmos 1862 Rocket 4.0 04:05:06 10° S 04:09:24 62° E 04:13:42 10° NNE
USA 234 3.2 04:04:01 10° SE 04:10:31 69° SW 04:17:04 10° WNW
Cosmos 2228 Rocket 4.1 04:10:44 27° WNW 04:10:49 27° WNW 04:14:37 10° N
CZ-4C R/B 3.4 04:05:05 10° NW 04:11:57 61° NE 04:20:00 10° ESE
COSMOS 2441 4.4 04:08:27 10° N 04:13:18 59° WNW 04:16:26 21° SW
H-2A R/B 2.3 04:10:22 10° S 04:14:40 50° W 04:19:04 10° NNW
USA 305 3.8 04:12:36 22° WNW 04:14:58 43° N 04:19:02 10° ENE
ALOS 4.0 04:11:02 10° NNE 04:15:19 34° E 04:19:34 10° SSE
PKM 4.0 04:14:43 29° WNW 04:16:20 52° SW 04:19:55 10° SE
USA 306 3.8 04:16:52 20° WNW 04:19:25 43° N 04:23:30 10° ENE
COSMOS 2455 4.4 04:14:24 10° NNW 04:19:59 36° NE 04:25:31 10° ESE
Cosmos 2360 Rocket 2.3 04:15:02 11° SSW 04:20:30 78° ESE 04:26:11 10° NNE
Meteor 1-4 Rocket 3.5 04:21:07 28° WNW 04:21:07 28° WNW 04:24:16 10° N
CZ-2C R/B 2.5 04:18:03 10° NNE 04:23:14 87° WNW 04:28:27 10° SSW
Cosmos 372 Rocket 3.8 04:21:30 10° NNW 04:26:38 69° WSW 04:31:41 10° SSE
Cosmos 2016 Rocket 4.0 04:20:43 10° N 04:26:52 86° E 04:32:58 10° S
Cosmos 1980 Rocket 3.7 04:29:06 15° WNW 04:31:40 20° NW 04:35:50 10° N
Cosmos 1000 Rocket 4.4 04:26:08 10° SSW 04:32:18 77° W 04:38:29 10° N
Cosmos 1484 Rocket 3.9 04:28:47 10° NNE 04:32:41 48° E 04:36:34 10° S
Cosmos 2061 Rocket 4.1 04:27:13 10° N 04:33:42 87° W 04:40:08 10° S
Cosmos 1666 3.8 04:30:54 10° NW 04:33:52 23° W 04:33:52 23° W
SAR-Lupe-1 4.3 04:31:16 10° SSE 04:34:49 70° ENE 04:38:24 10° N
Cosmos 1844 Rocket 2.7 04:30:00 10° NW 04:35:34 61° WSW 04:41:07 10° SSE
Cosmos 2278 Rocket 3.7 04:35:02 10° NNW 04:40:21 39° NE 04:45:38 10° ESE
Cosmos 2322 Rocket 2.6 04:36:12 17° WSW 04:40:21 48° NW 04:45:54 10° NNE
Meteor 1-11 Rocket 4.5 04:38:44 10° NNW 04:43:37 30° W 04:48:25 10° SSW
Cosmos 1812 4.5 04:43:21 15° WNW 04:43:41 15° WNW 04:46:03 10° NNW
Cosmos 1844 3.6 04:38:51 10° NNW 04:44:21 63° WSW 04:49:50 10° SSE
Lacrosse 5 3.1 04:40:50 10° WNW 04:45:23 34° N 04:50:00 10° ENE
Meteor 1-31 Rocket 3.6 04:41:50 10° NNE 04:45:37 53° E 04:49:24 10° S
Okean 1 3.4 04:41:47 10° S 04:45:50 82° E 04:49:54 10° NNE
ERBS 3.8 04:45:17 15° WNW 04:47:24 26° NNW 04:50:18 10° NE
Cosmos 1864 Rocket 4.4 04:42:01 10° NNW 04:48:17 79° W 04:54:27 10° S
COSMO-SKYMED 1 3.4 04:44:19 10° SSE 04:48:33 54° ENE 04:52:48 10° N
USA 307 3.7 04:45:04 12° WNW 04:48:55 46° N 04:53:02 10° E
Cosmos 1725 Rocket 3.9 04:43:20 10° NNW 04:49:33 79° W 04:55:42 10° S
Meteor 2-9 Rocket 4.3 04:44:45 10° N 04:50:17 79° ENE 04:55:39 10° SSE
Cosmos 2298 Rocket 4.0 04:46:11 10° NNW 04:51:27 63° WSW 04:56:40 10° S
USA 308 3.7 04:48:19 11° WNW 04:52:19 47° N 04:56:27 10° E
Cosmos 1437 Rocket 2.6 04:48:47 10° SSW 04:52:34 71° WNW 04:56:28 10° N
SL-16 R/B 3.0 04:48:34 15° WSW 04:52:41 35° NW 04:57:52 10° NNE
deb Chang Zheng 4 3.5 04:48:22 10° NNE 04:52:41 89° WNW 04:56:57 10° SSW
Meteor 1-27 Rocket 4.3 04:48:19 10° SW 04:53:50 39° WNW 04:59:20 10° N
FALCON 9 DEB 3.5 04:53:27 16° W 04:56:00 55° NNW 04:59:24 10° ENE
Cosmos 2100 Rocket 4.5 04:52:25 10° NNW 04:58:15 39° W 05:04:03 10° SSW
Cosmos 1536 4.2 04:56:48 10° NW 04:59:42 19° W 05:02:35 10° SW
SJ-6F 4.4 04:56:16 10° N 05:00:20 61° WNW 05:04:21 10° SSW
Cosmos 1782 Rocket 3.9 04:56:15 10° N 05:00:46 73° E 05:05:12 10° SSE
Cosmos 2237 4.4 04:56:19 10° SW 05:01:54 53° NW 05:07:30 10° NNE
Cosmos 1908 Rocket 3.6 04:57:33 10° NNW 05:02:00 64° W 05:06:25 10° S
Cosmos 1459 Rocket 4.4 04:56:41 10° NNW 05:02:13 38° W 05:07:42 10° SSW
Cosmos 841 Rocket 4.0 04:59:09 10° SW 05:04:06 42° WNW 05:09:07 10° NNE
Cosmos 1703 Rocket 3.6 05:01:22 10° S 05:05:42 85° E 05:10:05 10° N
Okean 1-7 3.1 05:02:04 10° S 05:06:18 79° E 05:10:34 10° NNE
ARIANE 5 R/B 4.4 05:05:45 10° NNW 05:08:00 13° NW 05:10:15 10° WNW
Cosmos 2219 Rocket 2.6 05:02:46 10° SSW 05:08:24 71° ESE 05:14:05 10° NNE
Cosmos 1802 Rocket 4.4 05:02:53 10° NNW 05:08:39 42° W 05:14:28 10° SSW
Cosmos 2208 Rocket 4.3 05:04:00 10° SW 05:09:00 46° WNW 05:14:02 10° NNE
CZ-4B R/B 3.4 05:05:41 10° NNE 05:09:16 55° E 05:12:46 10° S
Cosmos 1814 Rocket 4.4 05:05:20 10° SW 05:10:22 46° WNW 05:15:29 10° NNE
Cosmos 1125 Rocket 3.5 05:05:23 10° NNW 05:10:39 69° WSW 05:15:52 10° S
Intercosmos 25 3.3 05:07:42 10° SSW 05:11:05 42° WNW 05:14:10 10° N
CZ-4B R/B 2.3 05:11:02 10° SSW 05:13:48 26° W 05:16:40 10° NW
CZ-4B R/B 4.1 05:09:28 10° N 05:13:52 78° WNW 05:18:20 10° SSW
Meteor 2-4 Rocket 4.2 05:10:15 10° S 05:15:36 65° E 05:20:56 10° NNE
ERS-2 3.6 05:14:10 10° SW 05:16:35 17° W 05:19:01 10° NW
USA 267 3.6 05:10:43 10° ENE 05:17:06 58° NNW 05:23:29 10° W
Cosmos 2150 Rocket 4.5 05:13:48 10° NW 05:18:55 42° WSW 05:23:57 10° S
Cosmos 2123 Rocket 4.1 05:14:57 10° SSW 05:21:06 56° WNW 05:27:20 10° N
Cosmos 1544 3.9 05:19:54 10° NNW 05:23:04 29° W 05:26:12 10° SSW
ATLAS CENTAUR R/B 2.5 05:16:26 10° NW 05:24:27 61° SW 05:27:46 10° SE
ADEOS Rocket 3.7 05:18:56 10° SSW 05:24:38 31° W 05:29:55 10° NNW
Cosmos 540 Rocket 4.4 05:20:06 10° WSW 05:24:39 30° NW 05:29:14 10° N
Cosmos 1743 3.9 05:22:06 10° NW 05:25:02 21° W 05:27:58 10° SW
